DELTA 1 DEB, 9978

Orbit data source: Space-Track

DELTA 1 DEB, 9978 is space debris in SSO originally from a launch on Tue, 06 Nov 1973 UTC launched from the Air Force Western Test Range (AFWTR). Debris objects in space refer to the collection of defunct objects orbiting the Earth. Examples of debris include non-operational satellites, rocket bodies, and fragments generated from explosions, collisions, or faulty payload assembly.

Loading next visibility...
Identifier
9978, 1973-086GH
Orbit
SSO
Country
Flag of USUS
Related business
Manufacturer
Unknown
Mission
Spacecraft
Bus & Motor
Unknown
Mass
Unknown
Launch date (UTC)
1973-11-06 (52 years ago)
Launch vehicle
Unknown
Launch site
Air Force Western Test Range (AFWTR)
Object type
Payload
Rocket body
Debris
Shape & HBR
Unknown shape, 0.1 m
Radar Cross Section
Small (<0.1 m²)

Expand to show TLE details & history
Last TLE update: 10 hours ago

TLE from 10 hours ago
0 DELTA 1 DEB
1  9978U 73086GH  26034.37310451 -.00000301  00000-0 -20953-2 0  9993
2  9978 102.0598 339.6709 0053482 195.2737 320.2522 12.32943810276164
Epoch: 2026-02-03T08:57Z
TLE epoch observation values (Epoch: 2026-02-03T08:57:16.229Z)
Latitude
24.30893°
Longitude
-102.69087°
Altitude
1,506.807 km
Speed
7.128 km/s
True Right ascension
11h 00m 43s
True Declination
24° 11' 33"
Sunlit
Object was in full shadow at epoch
Visualization orbit readout
Latitude
Unknown
Longitude
Unknown
Altitude
Unknown
Speed
Unknown
Apparent Right ascension
Unknown
Apparent Declination
Unknown
Sunlit
N/A
Visualization observer readout
Local Sidereal Time
21:10:53
Azimuth
Unknown
Elevation
Unknown
Doppler factor
Unknown
Orbital elements
Apogee altitude
1,576.562 km
Perigee altitude
1,491.928 km
Semi-major axis
7,912.382 km
Eccentricity
0.00535
Inclination
102.0598°
RAAN
339.6709°
Arg. of periapsis
195.2737°
True anomaly
319.85831°
Mean anomaly
320.2522°
Eccentric anomaly
320.05546°
Mean motion
3.08377 °/min
Orbital period
116.74 mins
BSTAR
-0.0020953
Loading maneuver chart data...
Computing Atmospheric mass density...
Loading historical data...
Loading historical data...
Loading historical data...
Loading historical data...
Loading historical data...
Loading historical data...
Loading historical data...

Documentation

Showing up to 5 results
|